N1OF Weather Reports


time (UTC)temp
F
wind
direction
speed
knots
gust
knots
rain 1hr
in
rain 24hr
in
rain mn
in
humidity
%
barometer
mb
20260504110508 51 172 2.6 5.2 0.00 0.00 0.00 69 1007.9
20260504100430 51 240 1.7 6.1 0.00 0.00 0.00 68 1008.0
20260504081823 52 218 1.7 1.7 0.00 0.00 0.00 66 1008.8
20260504081320 52 145 0.9 1.7 0.00 0.00 0.00 65 1009.0
20260504080816 51 242 1.7 2.6 0.00 0.00 0.00 66 1009.1
20260504080313 51 135 0.9 3.5 0.00 0.00 0.00 66 1009.1
20260504070240 53 209 2.6 3.5 0.00 0.00 0.00 63 1009.5
20260504060201 53 345 0.0 0.9 0.00 0.00 0.00 60 1010.3
20260504050629 52 146 0.0 3.5 0.00 0.00 0.00 63 1011.1
20260504050126 52 137 0.0 2.6 0.00 0.00 0.00 64 1011.2
20260504045623 52 141 0.0 0.0 0.00 0.00 0.00 64 1011.1
20260504045118 52 90 0.0 1.7 0.00 0.00 0.00 64 1011.2
20260504044616 51 153 0.0 1.7 0.00 0.00 0.00 65 1011.1
20260504044113 51 127 0.0 1.7 0.00 0.00 0.00 65 1011.3
20260504043610 51 178 1.7 1.7 0.00 0.00 0.00 66 1011.1
20260504043107 51 150 0.0 2.6 0.00 0.00 0.00 67 1011.4
20260504042604 51 168 0.0 0.9 0.00 0.00 0.00 67 1011.2
20260504042101 51 125 0.9 2.6 0.00 0.00 0.00 67 1011.3
20260504041556 51 131 0.0 0.9 0.00 0.00 0.00 67 1011.5
20260504041053 51 129 1.7 5.2 0.00 0.00 0.00 67 1011.4
20260504040550 51 242 0.9 5.2 0.00 0.00 0.00 68 1011.4
20260504040047 51 148 0.0 0.9 0.00 0.00 0.00 69 1011.4
20260504035544 51 212 1.7 1.7 0.00 0.00 0.00 69 1011.7
20260504035040 51 130 0.9 2.6 0.00 0.00 0.00 69 1011.7
20260504034538 51 151 0.9 5.2 0.00 0.00 0.00 69 1011.8
20260504034034 51 88 0.9 3.5 0.00 0.00 0.00 69 1011.5
20260504033533 50 190 4.3 5.2 0.00 0.00 0.00 70 1011.9
20260504033030 50 182 1.7 3.5 0.00 0.00 0.00 70 1011.9
20260504032527 50 110 0.0 1.7 0.00 0.00 0.00 70 1012.0
20260504032024 50 206 1.7 5.2 0.00 0.00 0.00 70 1011.9
20260504031520 50 208 1.7 1.7 0.00 0.00 0.00 70 1011.9
20260504031016 50 163 0.9 2.6 0.00 0.00 0.00 71 1012.1
20260504030514 50 227 2.6 2.6 0.00 0.00 0.00 71 1011.9
20260504030010 50 140 1.7 2.6 0.00 0.00 0.00 71 1012.1
20260504025507 50 118 0.9 1.7 0.00 0.00 0.00 71 1012.1
20260504025004 50 115 0.9 3.5 0.00 0.00 0.00 71 1012.1
20260504024500 50 176 2.6 3.5 0.00 0.00 0.00 72 1012.0
20260504023958 50 151 1.7 5.2 0.00 0.00 0.00 71 1012.1
20260504023454 50 146 2.6 5.2 0.00 0.00 0.00 72 1012.2
20260504022950 50 183 5.2 7.8 0.00 0.00 0.00 72 1012.3
20260504022446 50 93 0.9 1.7 0.00 0.00 0.00 72 1012.3
20260504021943 50 168 2.6 5.2 0.00 0.00 0.00 71 1012.2
20260504021441 50 159 1.7 5.2 0.00 0.00 0.00 72 1012.4
20260504020938 50 125 2.6 2.6 0.00 0.00 0.00 72 1012.1
20260504020434 50 244 2.6 3.5 0.00 0.00 0.00 71 1012.3
20260504015931 50 141 1.7 5.2 0.00 0.00 0.00 71 1012.5
20260504015427 50 160 3.5 3.5 0.00 0.00 0.00 71 1012.4
20260504014923 50 158 1.7 2.6 0.00 0.00 0.00 71 1012.5
20260504014419 50 235 1.7 7.0 0.00 0.00 0.00 71 1012.3
20260504013916 50 174 2.6 3.5 0.00 0.00 0.00 71 1012.2
20260504013415 50 126 0.0 0.9 0.00 0.00 0.00 71 1012.6
20260504012910 50 195 0.0 0.9 0.00 0.00 0.00 71 1012.2
20260504012408 50 114 0.0 3.5 0.00 0.00 0.00 70 1012.3
20260504011905 51 149 1.7 2.6 0.00 0.00 0.00 70 1012.2
20260504011402 51 154 0.9 2.6 0.00 0.00 0.00 70 1012.3
20260504010858 51 145 1.7 2.6 0.00 0.00 0.00 70 1012.5
20260504010354 51 200 0.9 2.6 0.00 0.00 0.00 69 1012.6
20260504005851 51 149 1.7 2.6 0.00 0.00 0.00 69 1012.7
20260504005348 51 114 2.6 3.5 0.00 0.00 0.00 69 1012.6
20260504004845 51 191 1.7 6.1 0.00 0.00 0.00 69 1012.6
20260504004343 51 178 1.7 2.6 0.00 0.00 0.00 69 1012.8
20260504003839 51 129 2.6 3.5 0.00 0.00 0.00 68 1012.6
20260504003336 51 180 0.9 3.5 0.00 0.00 0.00 68 1012.5
20260504002833 51 153 1.7 3.5 0.00 0.00 0.00 67 1012.7
20260504002329 52 172 0.9 1.7 0.00 0.00 0.00 67 1012.6
20260504001827 52 158 0.9 1.7 0.00 0.00 0.00 66 1012.6
20260504001324 52 158 1.7 2.6 0.00 0.00 0.00 66 1012.8
20260504000821 52 162 1.7 2.6 0.00 0.00 0.00 65 1012.6
20260504000318 52 185 0.9 2.6 0.00 0.00 0.00 65 1012.8
20260503235816 52 213 0.9 0.9 0.00 0.00 0.00 64 1012.7
20260503235313 52 153 4.3 6.1 0.00 0.00 0.00 63 1012.8
20260503234810 52 170 3.5 5.2 0.00 0.00 0.00 63 1013.0
20260503234308 52 174 1.7 3.5 0.00 0.00 0.00 63 1012.9
20260503233806 53 44 0.9 2.6 0.00 0.00 0.00 63 1013.0
20260503233301 53 234 0.0 7.0 0.00 0.00 0.00 62 1013.3
20260503232758 53 302 3.5 7.8 0.00 0.00 0.00 61 1013.1
20260503232255 53 153 1.7 5.2 0.00 0.00 0.00 60 1013.4
20260503231753 53 159 2.6 9.6 0.00 0.00 0.00 60 1013.2
20260503231250 53 290 3.5 8.7 0.00 0.00 0.00 61 1013.0
20260503230746 53 173 4.3 5.2 0.00 0.00 0.00 60 1013.2
20260503230244 54 263 4.3 11.3 0.00 0.00 0.00 59 1013.3
20260503225741 54 260 4.3 6.1 0.00 0.00 0.00 60 1013.3
20260503225241 54 222 1.7 2.6 0.00 0.00 0.00 60 1013.4
20260503224738 54 310 2.6 5.2 0.00 0.00 0.00 58 1013.4
20260503224236 55 93 2.6 11.3 0.00 0.00 0.00 59 1013.2
20260503223733 56 223 5.2 8.7 0.00 0.00 0.00 57 1013.4
20260503223231 56 199 1.7 8.7 0.00 0.00 0.00 56 1013.5
20260503222727 56 288 7.8 15.6 0.00 0.00 0.00 56 1013.4
20260503222225 56 287 5.2 8.7 0.00 0.00 0.00 58 1013.4
20260503221723 57 215 3.5 7.8 0.00 0.00 0.00 57 1013.3
20260503221221 58 196 7.0 15.6 0.00 0.00 0.00 54 1013.0
20260503220717 60 273 3.5 9.6 0.00 0.00 0.00 37 1013.1
20260503220214 60 170 7.8 11.3 0.00 0.00 0.00 38 1012.8
20260503215710 60 238 2.6 6.1 0.00 0.00 0.00 37 1012.9
20260503215208 61 166 5.2 9.6 0.00 0.00 0.00 36 1012.9
20260503214706 61 18 3.5 9.6 0.00 0.00 0.00 37 1012.8
20260503214202 61 155 5.2 8.7 0.00 0.00 0.00 36 1012.9
20260503213701 61 232 3.5 6.1 0.00 0.00 0.00 36 1013.0
20260503213157 61 140 7.0 12.2 0.00 0.00 0.00 36 1013.0
20260503212654 61 297 2.6 9.6 0.00 0.00 0.00 37 1013.0
20260503212152 61 211 4.3 7.0 0.00 0.00 0.00 37 1012.8
20260503211650 61 231 5.2 12.2 0.00 0.00 0.00 37 1012.8
20260503211144 61 239 3.5 6.1 0.00 0.00 0.00 37 1013.1
20260503210641 61 232 4.3 16.5 0.00 0.00 0.00 37 1013.1
20260503210138 61 311 3.5 8.7 0.00 0.00 0.00 36 1013.1
20260503205634 61 289 3.5 18.2 0.00 0.00 0.00 36 1013.1
20260503205130 61 245 5.2 7.0 0.00 0.00 0.00 36 1013.2
20260503204621 61 232 7.8 9.6 0.00 0.00 0.00 36 1013.3
20260503204119 61 232 3.5 9.6 0.00 0.00 0.00 36 1013.2
20260503203616 62 226 7.8 9.6 0.00 0.00 0.00 36 1013.4
20260503203113 62 274 3.5 15.6 0.00 0.00 0.00 35 1013.3
20260503202610 62 357 5.2 8.7 0.00 0.00 0.00 34 1013.5
20260503202108 62 236 5.2 12.2 0.00 0.00 0.00 34 1013.7
20260503201606 62 310 1.7 6.1 0.00 0.00 0.00 34 1013.3
20260503201103 62 253 7.8 12.2 0.00 0.00 0.00 33 1013.7
20260503200559 62 156 6.1 12.2 0.00 0.00 0.00 36 1013.6
20260503200056 62 61 6.1 14.8 0.00 0.00 0.00 35 1013.8
20260503195548 61 266 4.3 8.7 0.00 0.00 0.00 36 1013.8
20260503195044 62 174 4.3 9.6 0.00 0.00 0.00 35 1013.6
20260503194542 63 3 7.0 13.0 0.00 0.00 0.00 34 1013.8
20260503194041 63 261 5.2 11.3 0.00 0.00 0.00 34 1014.1
20260503193539 62 148 5.2 8.7 0.00 0.00 0.00 34 1013.9
20260503193039 62 253 7.0 13.0 0.00 0.00 0.00 34 1014.1
20260503192536 62 232 5.2 8.7 0.00 0.00 0.00 34 1014.1
20260503192031 62 239 7.0 13.0 0.00 0.00 0.00 35 1014.1
20260503191528 62 188 5.2 11.3 0.00 0.00 0.00 35 1014.3
20260503191025 62 266 4.3 12.2 0.00 0.00 0.00 34 1014.3
20260503190522 62 252 7.0 11.3 0.00 0.00 0.00 34 1014.4
20260503190019 62 222 3.5 8.7 0.00 0.00 0.00 35 1014.5
20260503185515 61 186 3.5 7.8 0.00 0.00 0.00 37 1014.5
20260503185015 61 283 4.3 19.1 0.00 0.00 0.00 36 1014.7
20260503184512 62 189 5.2 11.3 0.00 0.00 0.00 36 1014.8
20260503184008 61 302 2.6 8.7 0.00 0.00 0.00 35 1014.9
20260503183505 62 235 5.2 11.3 0.00 0.00 0.00 35 1014.8
20260503183001 61 177 2.6 7.0 0.00 0.00 0.00 34 1014.9
20260503182500 62 262 7.0 11.3 0.00 0.00 0.00 34 1015.1
20260503181958 61 296 6.1 8.7 0.00 0.00 0.00 36 1015.1
20260503181455 62 301 1.7 11.3 0.00 0.00 0.00 36 1015.1
20260503180950 61 219 5.2 12.2 0.00 0.00 0.00 36 1015.2
20260503180449 62 203 6.1 9.6 0.00 0.00 0.00 34 1015.1
20260503175945 62 301 4.3 8.7 0.00 0.00 0.00 34 1015.3
20260503175443 61 209 6.1 12.2 0.00 0.00 0.00 34 1015.3
20260503174939 62 197 5.2 7.8 0.00 0.00 0.00 34 1015.4
20260503174438 61 230 3.5 5.2 0.00 0.00 0.00 35 1015.3
20260503173938 61 314 5.2 13.0 0.00 0.00 0.00 34 1015.6
20260503173434 62 288 5.2 7.8 0.00 0.00 0.00 34 1015.7
20260503172931 62 224 5.2 11.3 0.00 0.00 0.00 32 1015.5
20260503172428 61 222 5.2 7.8 0.00 0.00 0.00 32 1015.7
20260503171924 61 291 5.2 18.2 0.00 0.00 0.00 33 1015.8
20260503171421 61 283 3.5 7.0 0.00 0.00 0.00 34 1015.9
20260503170919 62 260 3.5 7.0 0.00 0.00 0.00 33 1015.8
20260503170415 61 195 3.5 7.0 0.00 0.00 0.00 35 1015.9
20260503150807 56 264 0.9 7.0 0.00 0.00 0.00 46 1016.9
20260503150303 55 165 2.6 7.0 0.00 0.00 0.00 46 1016.8
20260503140228 52 179 5.2 7.8 0.00 0.00 0.00 50 1017.3
20260503131157 50 328 5.2 8.7 0.00 0.00 0.00 52 1017.4
20260503130654 49 191 1.7 5.2 0.00 0.00 0.00 53 1017.3
20260503130152 49 310 1.7 3.5 0.00 0.00 0.00 53 1017.6